Tracking 31027 objects as of 19-Jul-2025
HD Live streaming from Space Station
objects crossing your sky now

STARLINK-32429

Track STARLINK-32429 now!
10-day predictions
STARLINK-32429 is classified as:


NORAD ID: 61682
Int'l Code: 2024-193X
Perigee: 481.5 km
Apogee: 483.2 km
Inclination: 53.2 °
Period: 94.1 minutes
Semi major axis: 6853 km
RCS: Unknown
Launch date: October 26, 2024
Source: United States (US)
Launch site: AIR FORCE EASTERN TEST RANGE (AFETR)
Your satellite tracking list
STARLINK-5403
Track 1 satellite(s)




NASA's NSSDC Master Catalog

Two Line Element Set (TLE):
1 61682U 24193X   25199.10223069 -.00001103  00000-0 -25131-4 0  9994
2 61682  53.1607 100.3901 0001210  94.7316 265.3823 15.30201799 40612
Source of the keplerian elements: AFSPC